Weather History for LFBZ - September, 2013

Change the Weather History Date:

Friday, September 27, 2013

  Actual Average Record
Temperature  
Mean Temperature 75 °F -  
Max Temperature 86 °F 68 °F 86 °F (2011)
Min Temperature 64 °F 53 °F 44 °F (2002)
Cooling Degree Days 10    
Growing Degree Days 25 (Base 50)    
Moisture  
Dew Point 63 °F    
Average Humidity 71    
Maximum Humidity 94    
Minimum Humidity 40    
Precipitation  
Precipitation 0.00 in - - ()
Sea Level Pressure  
Sea Level Pressure 29.77 in    
Wind  
Wind Speed 4 mph ()    
Max Wind Speed 9 mph    
Max Gust Speed -    
Visibility 6.2 miles    
Events      
Averages and records for this station are not official NWS values.
T = Trace of Precipitation, MM = Missing Value Source: Averaged Metar Reports

Daily Weather History Graph

Daily Weather History Graph

Search for Another Location

Airport or City:

Trip Planner

Search our weather history database for the weather conditions in past years. The results will help you decide how hot, cold, wet, or windy it might be!

Date:

Astronomy

Sep. 27, 2013 Rise Set
Actual Time 7:59 AM CEST 7:54 PM CEST
Civil Twilight 7:30 AM CEST 8:22 PM CEST
Nautical Twilight 6:57 AM CEST 8:56 PM CEST
Astronomical Twilight 6:23 AM CEST 9:29 PM CEST
Moon 12:32 AM CEST (9/27) 3:31 PM CEST (9/27)
Length of Visible Light 12h 52m
Length of Day
11h 55m
Waning Gibbous, 48% of the Moon is Illuminated
Sep 27
Waning Gibbous
Oct 5
New
Oct 12
First Quarter
Oct 19
Full
Oct 27
Last Quarter

Hourly Weather History & Observations

Time (CEST) Temp. Heat Index Dew Point Humidity Pressure Visibility Wind Dir Wind Speed Gust Speed Precip Events Conditions
12:00 AM 69.8 °F - 64.4 °F 83% 29.80 in 6.2 mi ENE 4.6 mph - N/A   Unknown
12:30 AM 68.0 °F - 64.4 °F 88% 29.80 in 6.2 mi ENE 3.5 mph - N/A   Unknown
1:00 AM 69.8 °F - 64.4 °F 83% 29.80 in 6.2 mi NE 4.6 mph - N/A   Unknown
1:30 AM 68.0 °F - 64.4 °F 88% 29.80 in 6.2 mi ENE 4.6 mph - N/A   Unknown
2:00 AM 68.0 °F - 64.4 °F 88% 29.80 in 6.2 mi NE 3.5 mph - N/A   Unknown
2:30 AM 68.0 °F - 64.4 °F 88% 29.80 in 6.2 mi East 4.6 mph - N/A   Unknown
3:00 AM 66.2 °F - 64.4 °F 94% 29.80 in 6.2 mi East 4.6 mph - N/A   Unknown
3:30 AM 66.2 °F - 62.6 °F 88% 29.80 in 6.2 mi East 4.6 mph - N/A   Unknown
4:00 AM 66.2 °F - 64.4 °F 94% 29.80 in 6.2 mi East 4.6 mph - N/A   Unknown
4:30 AM 66.2 °F - 62.6 °F 88% 29.80 in 6.2 mi NE 4.6 mph - N/A   Unknown
5:00 AM 66.2 °F - 62.6 °F 88% 29.80 in 6.2 mi ENE 5.8 mph - N/A   Unknown
5:30 AM 64.4 °F - 62.6 °F 94% 29.77 in 6.2 mi East 4.6 mph - N/A   Unknown
6:00 AM 64.4 °F - 60.8 °F 88% 29.80 in - East 3.5 mph - N/A   Clear
6:30 AM 64.4 °F - 60.8 °F 88% 29.80 in - East 4.6 mph - N/A   Clear
7:00 AM 64.4 °F - 62.6 °F 94% 29.80 in - Variable 3.5 mph - N/A   Clear
7:30 AM 64.4 °F - 62.6 °F 94% 29.77 in - SSE 4.6 mph - N/A   Clear
8:00 AM 64.4 °F - 60.8 °F 88% 29.80 in 6.2 mi SSE 4.6 mph - N/A   Mostly Cloudy
8:30 AM 66.2 °F - 60.8 °F 83% 29.80 in - Variable 2.3 mph - N/A   Clear
9:00 AM 66.2 °F - 60.8 °F 83% 29.80 in - Variable 2.3 mph - N/A   Clear
9:30 AM 68.0 °F - 62.6 °F 83% 29.80 in - Variable 2.3 mph - N/A   Clear
10:00 AM 69.8 °F - 62.6 °F 78% 29.80 in - East 5.8 mph - N/A   Clear
10:30 AM 69.8 °F - 62.6 °F 78% 29.80 in - Variable 2.3 mph - N/A   Clear
11:00 AM 75.2 °F - 64.4 °F 69% 29.80 in - Variable 2.3 mph - N/A   Clear
11:30 AM 82.4 °F 83.4 °F 62.6 °F 51% 29.80 in - Calm Calm - N/A   Clear
12:00 PM 84.2 °F 84.4 °F 60.8 °F 45% 29.80 in - Variable 2.3 mph - N/A   Clear
12:30 PM 84.2 °F 84.4 °F 60.8 °F 45% 29.80 in - Calm Calm - N/A   Clear
1:00 PM 86.0 °F 85.4 °F 59.0 °F 40% 29.80 in - Variable 2.3 mph - N/A   Clear
1:30 PM 86.0 °F 85.4 °F 59.0 °F 40% 29.77 in - Variable 3.5 mph - N/A   Clear
2:00 PM 86.0 °F 85.4 °F 59.0 °F 40% 29.77 in - West 3.5 mph - N/A   Clear
2:30 PM 84.2 °F 83.8 °F 59.0 °F 42% 29.77 in - West 6.9 mph - N/A   Clear
3:00 PM 86.0 °F 86.6 °F 62.6 °F 45% 29.77 in - Variable 3.5 mph - N/A   Clear
3:30 PM 84.2 °F 83.8 °F 59.0 °F 42% 29.77 in - Variable 1.2 mph - N/A   Clear
4:00 PM 84.2 °F 85.0 °F 62.6 °F 48% 29.74 in - East 5.8 mph - N/A   Clear
4:30 PM 84.2 °F 88.4 °F 69.8 °F 62% 29.74 in - East 4.6 mph - N/A   Clear
5:00 PM 86.0 °F 90.4 °F 69.8 °F 58% 29.74 in - East 6.9 mph - N/A   Clear
5:30 PM 82.4 °F 85.4 °F 68.0 °F 62% 29.71 in - East 5.8 mph - N/A   Clear
6:00 PM 82.4 °F 84.6 °F 66.2 °F 58% 29.71 in - ESE 9.2 mph - N/A   Clear
6:30 PM 80.6 °F 82.7 °F 66.2 °F 61% 29.71 in - ESE 5.8 mph - N/A   Clear
7:00 PM 78.8 °F - 66.2 °F 65% 29.71 in - SSE 4.6 mph - N/A   Clear
7:30 PM 78.8 °F - 66.2 °F 65% 29.71 in - East 4.6 mph - N/A   Clear
8:00 PM 77.0 °F - 66.2 °F 69% 29.71 in - East 5.8 mph - N/A   Clear
8:30 PM 75.2 °F - 66.2 °F 73% 29.71 in 6.2 mi ESE 5.8 mph - N/A   Unknown
9:00 PM 75.2 °F - 66.2 °F 73% 29.71 in 6.2 mi Variable 3.5 mph - N/A   Unknown
9:30 PM 75.2 °F - 64.4 °F 69% 29.71 in 6.2 mi East 4.6 mph - N/A   Unknown
10:00 PM 75.2 °F - 64.4 °F 69% 29.71 in 6.2 mi East 5.8 mph - N/A   Unknown
10:30 PM 75.2 °F - 62.6 °F 65% 29.71 in 6.2 mi ESE 5.8 mph - N/A   Unknown
11:00 PM 75.2 °F - 60.8 °F 61% 29.71 in 6.2 mi SE 3.5 mph - N/A   Unknown
11:30 PM 75.2 °F - 62.6 °F 65% 29.71 in 6.2 mi East 2.3 mph - N/A   Unknown